Weather History for Ithaca, NY

Change the Weather History Date:

Saturday, December 20, 2014

  Actual Average Record
Temperature  
Mean Temperature 27 °F -  
Max Temperature 28 °F 31 °F 57 °F (1957)
Min Temperature 26 °F 17 °F -14 °F (1942)
Degree Days  
Heating Degree Days 38    
Moisture  
Dew Point 23 °F    
Average Humidity 84    
Maximum Humidity 88    
Minimum Humidity 78    
Precipitation  
Precipitation 0.00 in - - ()
Sea Level Pressure  
Sea Level Pressure 30.28 in    
Wind  
Wind Speed 5 mph (NNW)    
Max Wind Speed 8 mph    
Max Gust Speed -    
Visibility 10 miles    
Events Snow    
Averages and records for this station are not official NWS values.
T = Trace of Precipitation, MM = Missing Value Source: NWS Daily Summary

Daily Weather History Graph

Daily Weather History Graph

Search for Another Location

Airport:

Trip Planner

Search our weather history database for the weather conditions in past years. The results will help you decide how hot, cold, wet, or windy it might be!

Date:

Astronomy

Dec. 20, 2014 Rise Set
Actual Time 7:31 AM EST 4:35 PM EST
Civil Twilight 6:59 AM EST 5:07 PM EST
Nautical Twilight 6:23 AM EST 5:43 PM EST
Astronomical Twilight 5:49 AM EST 6:17 PM EST
Moon 5:43 AM EST (12/20) 3:46 PM EST (12/20)
Length of Visible Light 10h 07m
Length of Day
9h 03m
Waning Crescent, 2% of the Moon is Illuminated
Dec 20
Waning Crescent
Dec 21
New
Dec 28
First Quarter
Jan 4
Full
Jan 13
Last Quarter

Hourly Weather History & Observations

Time (EST) Temp. Windchill Dew Point Humidity Pressure Visibility Wind Dir Wind Speed Gust Speed Precip Events Conditions
12:56 AM 27.1 °F 19.7 °F 23.0 °F 84% 30.25 in 10.0 mi NNW 6.9 mph - N/A   Overcast
1:56 AM 27.1 °F 19.7 °F 24.1 °F 88% 30.25 in 10.0 mi NNW 6.9 mph - N/A   Overcast
2:17 AM 26.6 °F 19.1 °F 23.0 °F 86% 30.19 in 10.0 mi North 6.9 mph - N/A   Overcast
2:56 AM 26.1 °F 17.6 °F 23.0 °F 88% 30.24 in 10.0 mi NNW 8.1 mph - N/A   Overcast
3:56 AM 26.1 °F 18.4 °F 23.0 °F 88% 30.24 in 10.0 mi NNW 6.9 mph - N/A   Overcast
4:56 AM 26.1 °F 20.5 °F 23.0 °F 88% 30.26 in 10.0 mi NNW 4.6 mph - N/A   Overcast
5:56 AM 26.1 °F 21.9 °F 23.0 °F 88% 30.28 in 7.0 mi NNW 3.5 mph - N/A   Overcast
6:26 AM 26.6 °F 22.6 °F 23.0 °F 86% 30.25 in 10.0 mi NW 3.5 mph - 0.00 in Snow Light Snow
6:56 AM 26.1 °F 21.9 °F 23.0 °F 88% 30.30 in 10.0 mi NNW 3.5 mph - 0.00 in Snow Light Snow Showers
7:56 AM 26.1 °F 21.9 °F 23.0 °F 88% 30.31 in 10.0 mi NW 3.5 mph - 0.00 in Snow Light Snow Showers
8:56 AM 27.1 °F 18.9 °F 21.0 °F 78% 30.30 in 10.0 mi NNW 8.1 mph - 0.00 in   Overcast
9:56 AM 27.1 °F 19.7 °F 23.0 °F 84% 30.32 in 10.0 mi NW 6.9 mph - N/A   Overcast
10:56 AM 27.1 °F 19.7 °F 24.1 °F 88% 30.32 in 6.0 mi NNW 6.9 mph - 0.00 in Snow Light Snow
11:56 AM 28.0 °F 21.7 °F 24.1 °F 85% 30.30 in 10.0 mi NW 5.8 mph - 0.00 in Snow Light Snow
12:34 PM 28.4 °F 22.2 °F 23.0 °F 80% 30.24 in 10.0 mi North 5.8 mph - 0.00 in Snow Light Snow
12:56 PM 28.0 °F 21.7 °F 22.1 °F 78% 30.29 in 10.0 mi NW 5.8 mph - 0.00 in Snow Light Snow
1:56 PM 28.0 °F 21.7 °F 22.1 °F 78% 30.26 in 10.0 mi NNE 5.8 mph - 0.00 in Snow Light Snow
2:56 PM 28.0 °F - 22.1 °F 78% 30.27 in 10.0 mi North - - 0.00 in   Overcast
3:56 PM 27.1 °F - 21.0 °F 78% 30.28 in 10.0 mi North - - N/A   Overcast
4:56 PM 27.1 °F - 22.1 °F 81% 30.29 in 10.0 mi Calm Calm - N/A   Overcast
5:56 PM 27.1 °F - 22.1 °F 81% 30.30 in 10.0 mi Calm Calm - N/A   Overcast
6:56 PM 27.1 °F - 22.1 °F 81% 30.31 in 10.0 mi Calm Calm - N/A   Overcast
7:56 PM 27.1 °F - 22.1 °F 81% 30.31 in 10.0 mi Calm Calm - N/A   Overcast
8:56 PM 27.1 °F - 23.0 °F 84% 30.31 in 10.0 mi Calm Calm - N/A   Overcast
9:56 PM 27.1 °F - 23.0 °F 84% 30.30 in 10.0 mi Calm Calm - N/A   Overcast
10:56 PM 27.1 °F - 23.0 °F 84% 30.31 in 10.0 mi Calm Calm - N/A   Overcast
11:56 PM 27.1 °F 23.2 °F 22.1 °F 81% 30.31 in 10.0 mi SSE 3.5 mph - N/A   Overcast